When you browse on this site, cookies collect data to enhance your experience and personalize the content and advertising you see.
Visit our Privacy Policy to learn more. By continuing to use the site, you agree to this use of cookies and data.
  • In Latvia
  • List of Countries
  • For 7 days
  • Water Temperature
  • Weather Map
  • Weather Widgets
  • user-avatar
    Login

    Hourly Weather Ahtopol

    Today, 15 December, Sunday

    Time Temperature Precipitation Wind Pressure Humidity
    00:00 +12°C° 0 mm 1 mps 754 mmHg 83%
    01:00 +12°C° 0 mm 2 mps 755 mmHg 83%
    02:00 +11°C° 0 mm 3 mps 755 mmHg 83%
    03:00 +11°C° 0.2 mm 3 mps 756 mmHg 85%
    04:00 +10°C° 0.2 mm 3 mps 757 mmHg 87%
    05:00 +10°C° 0.2 mm 3 mps 757 mmHg 90%
    06:00 +10°C° 0.2 mm 2 mps 758 mmHg 89%
    07:00 +10°C° 0.2 mm 2 mps 759 mmHg 89%
    08:00 +9°C° 0.2 mm 2 mps 760 mmHg 88%
    09:00 +10°C° 0 mm 3 mps 761 mmHg 77%
    10:00 +12°C° 0 mm 4 mps 761 mmHg 67%
    11:00 +13°C° 0 mm 5 mps 762 mmHg 56%
    12:00 +13°C° 0 mm 4 mps 762 mmHg 52%
    13:00 +14°C° 0 mm 3 mps 762 mmHg 49%
    14:00 +15°C° 0 mm 2 mps 762 mmHg 46%
    15:00 +14°C° 0 mm 2 mps 763 mmHg 50%
    16:00 +13°C° 0 mm 1 mps 763 mmHg 55%
    17:00 +12°C° 0 mm 1 mps 763 mmHg 59%
    18:00 +11°C° 0 mm 1 mps 764 mmHg 61%
    19:00 +11°C° 0 mm 1 mps 764 mmHg 63%
    20:00 +11°C° 0 mm 1 mps 764 mmHg 65%
    21:00 +11°C° 0 mm 1 mps 765 mmHg 66%
    22:00 +10°C° 0 mm 1 mps 765 mmHg 67%
    23:00 +10°C° 0 mm 1 mps 765 mmHg 68%

    Tomorrow, 16 December, Monday

    Time Temperature Precipitation Wind Pressure Humidity
    00:00 +10°C° 0 mm 1 mps 765 mmHg 71%
    01:00 +10°C° 0 mm 1 mps 765 mmHg 73%
    02:00 +9°C° 0 mm 1 mps 766 mmHg 75%
    03:00 +9°C° 0 mm 1 mps 766 mmHg 77%
    04:00 +8°C° 0 mm 2 mps 765 mmHg 79%
    05:00 +8°C° 0 mm 2 mps 765 mmHg 81%
    06:00 +8°C° 0 mm 2 mps 766 mmHg 82%
    07:00 +7°C° 0 mm 2 mps 766 mmHg 84%
    08:00 +7°C° 0 mm 2 mps 766 mmHg 85%
    09:00 +9°C° 0 mm 2 mps 766 mmHg 81%
    10:00 +12°C° 0 mm 2 mps 766 mmHg 76%
    11:00 +13°C° 0 mm 2 mps 766 mmHg 72%
    12:00 +14°C° 0 mm 2 mps 766 mmHg 71%
    13:00 +15°C° 0 mm 2 mps 766 mmHg 70%
    14:00 +14°C° 0 mm 3 mps 765 mmHg 69%
    15:00 +14°C° 0 mm 2 mps 765 mmHg 75%
    16:00 +13°C° 0 mm 2 mps 765 mmHg 80%
    17:00 +12°C° 0 mm 2 mps 765 mmHg 86%
    18:00 +11°C° 0 mm 1 mps 765 mmHg 87%
    19:00 +11°C° 0 mm 1 mps 766 mmHg 89%
    20:00 +11°C° 0 mm 1 mps 766 mmHg 90%
    21:00 +10°C° 0 mm 1 mps 766 mmHg 90%
    22:00 +10°C° 0 mm 1 mps 766 mmHg 90%
    23:00 +10°C° 0 mm 1 mps 766 mmHg 90%

    Day after tomorrow, 17 December, Tuesday

    Time Temperature Precipitation Wind Pressure Humidity
    00:00 +10°C° 0 mm 1 mps 766 mmHg 90%
    01:00 +10°C° 0 mm 1 mps 765 mmHg 91%
    02:00 +9°C° 0 mm 1 mps 765 mmHg 91%
    03:00 +8°C° 0 mm 2 mps 765 mmHg 92%
    04:00 +8°C° 0 mm 2 mps 765 mmHg 92%
    05:00 +8°C° 0 mm 2 mps 765 mmHg 93%
    06:00 +8°C° 0 mm 2 mps 765 mmHg 93%
    07:00 +8°C° 0 mm 2 mps 765 mmHg 93%
    08:00 +8°C° 0 mm 2 mps 765 mmHg 94%
    09:00 +9°C° 0 mm 2 mps 766 mmHg 90%
    10:00 +10°C° 0 mm 3 mps 766 mmHg 86%
    11:00 +12°C° 0 mm 3 mps 766 mmHg 82%
    12:00 +12°C° 0 mm 3 mps 765 mmHg 79%
    13:00 +13°C° 0 mm 3 mps 765 mmHg 76%
    14:00 +14°C° 0 mm 3 mps 765 mmHg 73%
    15:00 +14°C° 0 mm 2 mps 765 mmHg 78%
    16:00 +13°C° 0 mm 2 mps 765 mmHg 82%
    17:00 +12°C° 0 mm 2 mps 765 mmHg 87%
    18:00 +10°C° 0 mm 2 mps 765 mmHg 88%
    19:00 +10°C° 0 mm 2 mps 765 mmHg 89%
    20:00 +10°C° 0 mm 2 mps 765 mmHg 90%
    21:00 +10°C° 0 mm 2 mps 765 mmHg 90%
    22:00 +9°C° 0 mm 2 mps 765 mmHg 90%
    23:00 +9°C° 0 mm 2 mps 765 mmHg 90%

    18 December, Wednesday

    Time Temperature Precipitation Wind Pressure Humidity
    00:00 +9°C° 0 mm 2 mps 765 mmHg 90%
    01:00 +9°C° 0 mm 2 mps 765 mmHg 91%
    02:00 +9°C° 0 mm 2 mps 765 mmHg 91%
    03:00 +9°C° 0 mm 2 mps 765 mmHg 91%
    04:00 +8°C° 0 mm 2 mps 765 mmHg 92%
    05:00 +8°C° 0 mm 2 mps 765 mmHg 92%
    06:00 +8°C° 0 mm 2 mps 765 mmHg 92%
    07:00 +8°C° 0 mm 2 mps 765 mmHg 93%
    08:00 +8°C° 0 mm 2 mps 765 mmHg 93%
    09:00 +9°C° 0 mm 3 mps 765 mmHg 89%
    10:00 +11°C° 0 mm 3 mps 765 mmHg 84%
    11:00 +12°C° 0 mm 3 mps 765 mmHg 79%
    12:00 +13°C° 0 mm 3 mps 765 mmHg 76%
    13:00 +14°C° 0 mm 3 mps 765 mmHg 72%
    14:00 +16°C° 0 mm 3 mps 764 mmHg 69%
    15:00 +14°C° 0 mm 3 mps 764 mmHg 74%
    16:00 +14°C° 0 mm 2 mps 764 mmHg 79%
    17:00 +13°C° 0 mm 2 mps 764 mmHg 84%
    18:00 +12°C° 0 mm 2 mps 764 mmHg 85%
    19:00 +12°C° 0 mm 2 mps 764 mmHg 86%
    20:00 +12°C° 0 mm 2 mps 765 mmHg 87%
    21:00 +12°C° 0 mm 2 mps 765 mmHg 88%
    22:00 +10°C° 0 mm 3 mps 765 mmHg 89%
    23:00 +10°C° 0 mm 3 mps 765 mmHg 89%

    19 December, Thursday

    Time Temperature Precipitation Wind Pressure Humidity
    00:00 +10°C° 0 mm 3 mps 765 mmHg 89%
    01:00 +10°C° 0 mm 3 mps 764 mmHg 89%
    02:00 +10°C° 0 mm 4 mps 764 mmHg 89%
    03:00 +10°C° 0 mm 4 mps 764 mmHg 90%
    04:00 +10°C° 0 mm 4 mps 764 mmHg 90%
    05:00 +10°C° 0 mm 4 mps 764 mmHg 91%
    06:00 +10°C° 0 mm 4 mps 764 mmHg 91%
    07:00 +10°C° 0 mm 4 mps 764 mmHg 91%
    08:00 +10°C° 0 mm 4 mps 764 mmHg 91%
    09:00 +12°C° 0 mm 4 mps 763 mmHg 86%
    10:00 +13°C° 0 mm 5 mps 763 mmHg 81%
    11:00 +15°C° 0 mm 6 mps 763 mmHg 75%
    12:00 +16°C° 0 mm 6 mps 763 mmHg 73%
    13:00 +16°C° 0 mm 6 mps 762 mmHg 70%
    14:00 +17°C° 0 mm 6 mps 762 mmHg 67%
    15:00 +16°C° 0 mm 6 mps 762 mmHg 71%
    16:00 +15°C° 0 mm 6 mps 761 mmHg 75%
    17:00 +14°C° 0 mm 6 mps 761 mmHg 78%
    18:00 +14°C° 0 mm 6 mps 761 mmHg 79%
    19:00 +14°C° 0 mm 6 mps 761 mmHg 79%
    20:00 +14°C° 0 mm 6 mps 761 mmHg 80%
    21:00 +14°C° 0 mm 6 mps 761 mmHg 81%
    22:00 +14°C° 0 mm 6 mps 761 mmHg 82%
    23:00 +14°C° 0 mm 6 mps 760 mmHg 83%

    20 December, Friday

    Time Temperature Precipitation Wind Pressure Humidity
    00:00 +14°C° 0 mm 6 mps 760 mmHg 84%
    01:00 +14°C° 0 mm 6 mps 760 mmHg 84%
    02:00 +14°C° 0 mm 6 mps 759 mmHg 85%
    03:00 +14°C° 0 mm 6 mps 759 mmHg 85%
    04:00 +14°C° 0 mm 6 mps 759 mmHg 84%
    05:00 +12°C° 0 mm 7 mps 759 mmHg 84%
    06:00 +13°C° 0 mm 6 mps 759 mmHg 85%
    07:00 +13°C° 0 mm 5 mps 759 mmHg 85%
    08:00 +13°C° 0 mm 5 mps 759 mmHg 85%
    09:00 +14°C° 0 mm 5 mps 759 mmHg 80%
    10:00 +15°C° 0 mm 5 mps 759 mmHg 74%
    11:00 +16°C° 0 mm 6 mps 759 mmHg 69%
    12:00 +16°C° 0 mm 6 mps 758 mmHg 65%
    13:00 +17°C° 0 mm 6 mps 758 mmHg 61%
    14:00 +17°C° 0 mm 6 mps 757 mmHg 57%
    15:00 +16°C° 0 mm 5 mps 757 mmHg 61%
    16:00 +15°C° 0 mm 4 mps 757 mmHg 66%
    17:00 +14°C° 0 mm 3 mps 757 mmHg 70%
    18:00 +14°C° 0 mm 3 mps 757 mmHg 71%
    19:00 +14°C° 0 mm 3 mps 757 mmHg 72%
    20:00 +14°C° 0 mm 4 mps 757 mmHg 73%
    21:00 +13°C° 0 mm 4 mps 757 mmHg 75%
    22:00 +13°C° 0 mm 4 mps 757 mmHg 78%
    23:00 +13°C° 0 mm 4 mps 757 mmHg 80%
    Show more